Left ArrowRight Arrow

36.19886, -115.1175

Hourly Observations for May 22, 2024

Temp ( °F °C ) Dew Point ( °F °C ) Humidity (%) Winds ( mph kmh ) Pressure ( in mb ) Visibility ( mi km ) Precip ( " mm )
12:53 am 00:53 Clear 70 21.1 27 -2.8 20 20 NW 3 6 29.87 1012 10 16 0.00 0.00
1:53 am 01:53 Clear 67 19.4 25 -3.9 20 20 NNW 6 9 29.86 1011 10 16 0.00 0.00
2:53 am 02:53 Clear 66 18.9 26 -3.3 22 22 NW 6 9 29.85 1011 10 16 0.00 0.00
3:53 am 03:53 Clear 66 18.9 28 -2.2 24 24 WNW 5 7 29.85 1011 10 16 0.00 0.00
4:53 am 04:53 Clear 65 18.3 27 -2.8 24 24 W 3 6 29.85 1011 10 16 0.00 0.00
5:53 am 05:53 Sunny 64 17.8 25 -3.9 22 22 NW 5 7 29.85 1011 10 16 0.00 0.00
6:53 am 06:53 Sunny 67 19.4 24 -4.4 20 20 Calm 29.87 1011 10 16 0.00 0.00
7:53 am 07:53 Sunny 72 22.2 21 -6.1 14 14 Calm 29.87 1012 10 16 0.00 0.00
8:53 am 08:53 Sunny 74 23.3 21 -6.1 14 14 Calm 29.88 1012 10 16 0.00 0.00
9:53 am 09:53 Sunny 78 25.6 19 -7.2 11 11 VRB 5 7 29.86 1011 10 16 0.00 0.00
10:53 am 10:53 Sunny 81 27.2 18 -7.8 9 9 SE 7 11 29.85 1011 10 16 0.00 0.00
11:53 am 11:53 Sunny 84 28.9 20 -6.7 9 9 SSE 10 17 29.83 1010 10 16 0.00 0.00
12:53 pm 12:53 Sunny 87 30.6 22 -5.6 9 9 ESE 8 13 29.79 1009 10 16 0.00 0.00
1:53 pm 13:53 Sunny 89 31.7 21 -6.1 8 8 WSW 6 9 29.76 1008 10 16 0.00 0.00
2:18 pm 14:18 Sunny 91 32.8 21 -6.1 8 8 SSW 16 26 29.59 1002 10 16 0.00 0.00
2:53 pm 14:53 Sunny 91 32.8 22 -5.6 8 8 WSW 16 26 29.72 1007 10 16 0.00 0.00
3:53 pm 15:53 Sunny 93 33.9 23 -5 8 8 SW 16 26 29.70 1006 10 16 0.00 0.00
4:53 pm 16:53 Sunny 91 32.8 20 -6.7 7 7 SSW 20 31 29.68 1005 10 16 0.00 0.00
5:53 pm 17:53 Sunny 91 32.8 22 -5.6 8 8 WSW 21 33 29.67 1005 10 16 0.00 0.00
6:53 pm 18:53 Sunny 89 31.7 24 -4.4 9 9 SW 13 20 29.67 1005 10 16 0.00 0.00
7:53 pm 19:53 Clear 88 31.1 23 -5 9 9 SW 16 26 29.66 1004 10 16 0.00 0.00
8:53 pm 20:53 Clear 86 30 24 -4.4 10 10 SW 9 15 29.67 1005 10 16 0.00 0.00
9:53 pm 21:53 Clear 84 28.9 27 -2.8 12 12 SSW 10 17 29.68 1005 10 16 0.00 0.00
10:53 pm 22:53 Clear 82 27.8 26 -3.3 13 13 SSW 13 20 29.68 1005 10 16 0.00 0.00
11:53 pm 23:53 Clear 80 26.7 27 -2.8 14 14 S 14 22 29.67 1005 10 16 0.00 0.00

Powered by Vaisala Xweather